Weather Roundup
Issued by NWS

Home | Current Version | Previous Version | Text Only | Print | Product List | Glossary On
Versions: 1 2 3 4 5 6 7 8 9 10 11 12 13 14 15 16 17 18 19 20 21 22 23 24 25 26 27 28 29 30 31 32 33 34 35 36 37 38 39 40 41 42 43 44 45 46 47 48 49 50
000
NZUS93 KARX 291810
HRRWXR

CURRENT HOURLY OBSERVATIONS ACROSS
MUCH OF THE UPPER MISSISSIPPI VALLEY
NATIONAL WEATHER SERVICE LA CROSSE WI
100 PM CDT WED OCT 29 2014


...SOUTHEAST MINNESOTA...


CITY           SKY/WX    TMP DP  RH WIND       PRES   REMARKS
ROCHESTER      CLOUDY    40  31  70 VRB6      30.15F
ROCHESTER/MAYO CLOUDY    40  30  66 NW6       30.15F
WINONA         CLOUDY    43  32  65 NW6       30.14F
AUSTIN         CLOUDY    39  30  70 W6        30.15F WCI  35
ALBERT LEA     CLOUDY    39  30  70 NW6       30.16F WCI  35
DODGE CENTER   CLOUDY    39  32  75 W6        30.15F WCI  35
PRESTON        CLOUDY    39  31  73 NW9       30.15S WCI  33
OWATONNA       FAIR      39  30  70 W8        30.16F WCI  34
FARIBAULT      CLOUDY    41  30  65 NW3       30.16F
$$

...ELSEWHERE IN MINNESOTA...


CITY           SKY/WX    TMP DP  RH WIND       PRES   REMARKS
MINNEAPOLIS    CLOUDY    42  31  64 W7        30.15F
INTNL FALLS    CLOUDY    37  35  92 W8        30.06S WCI  31
DULUTH         PTSUNNY   40  31  70 NW10      30.07S WCI  33
RED WING       CLOUDY    45  30  57 W8        30.13F
REDWOOD FALLS  PTSUNNY   41  30  65 NW5       30.16F
MANKATO        CLOUDY    39  27  60 W6        30.17F WCI  35
WORTHINGTON    FAIR      45  28  53 NW5       30.16F
FAIRMONT       PTSUNNY   45  28  53 SW5       30.17F
$$

...SOUTHWEST WISCONSIN...


CITY           SKY/WX    TMP DP  RH WIND       PRES   REMARKS
LA CROSSE      CLOUDY    46  32  58 NW9       30.13F
PRAIRIE DU CHI CLOUDY    45  30  57 W8        30.14F
BOSCOBEL       CLOUDY    47  31  53 W12       30.14S
LONE ROCK      PTSUNNY   50  31  48 NW13      30.11F
PLATTEVILLE    CLOUDY    45  32  61 MISG      30.13S
FORT MC COY    CLOUDY    44  31  59 NW8       30.12F
CAMP DOUGLAS   CLOUDY    45  34  65 W12       30.10F
VIROQUA        CLOUDY    42  32  67 W7G17     30.11F
WIS DELLS      CLOUDY    44  31  60 NW10      30.09S
$$

...ELSEWHERE IN WISCONSIN...


CITY           SKY/WX    TMP DP  RH WIND       PRES   REMARKS
MILWAUKEE      PTSUNNY   47  31  53 NW14G23   30.06S
MADISON        PTSUNNY   46  31  55 NW12      30.09S
GREEN BAY      CLOUDY    48  35  60 NW8       30.03S
EAU CLAIRE     CLOUDY    44  31  60 W7        30.11F
BLACK RVR FLS  CLOUDY    44  31  59 N6        30.11F
MEDFORD        CLOUDY    40  32  74 W9        30.07S WCI  34
WAUSAU         CLOUDY    43  33  68 W8        30.05S
WIS RAPIDS     CLOUDY    45  32  60 NW12      30.09F
MARSHFIELD     CLOUDY    44  32  62 NW13      30.07F
RICE LAKE      CLOUDY    40  32  74 W6        30.13S
$$

...NORTHEAST IOWA...


CITY           SKY/WX    TMP DP  RH WIND       PRES   REMARKS
DECORAH        CLOUDY    43  32  65 NW9       30.13F
MASON CITY     PTSUNNY   43  32  65 NW7G18    30.18F
CHARLES CITY   CLOUDY    43  32  65 N8        30.16F
OELWEIN        FAIR      45  32  61 NW13      30.16F
$$

...ELSEWHERE IN IOWA...


CITY           SKY/WX    TMP DP  RH WIND       PRES   REMARKS
DES MOINES     FAIR      51  33  50 N8        30.20F
IOWA CITY      FAIR      49  32  52 NW13G21   30.18F
FORT DODGE     FAIR      48  32  53 NW6       30.19F
$$

...NORTHERN ILLINOIS...


CITY           SKY/WX    TMP DP  RH WIND       PRES   REMARKS
CHICAGO-OHARE  CLOUDY    46  32  58 W9        30.07F
CHICAGO-MIDWAY CLOUDY    48  32  53 W12       30.08S
MOLINE         CLOUDY    50  32  50 NW14G21   30.14F
ROCKFORD       CLOUDY    47  32  56 N14       30.12S
PEORIA         CLOUDY    50  32  50 NW9       30.15S
$$

NOTE: "FAIR" INDICATES FEW OR NO CLOUDS BELOW 12,000 FEET WITH NO
SIGNIFICANT WEATHER AND/OR OBSTRUCTIONS TO VISIBILITY. WIND
SPEEDS ARE IN MILES-PER-HOUR.



USA.gov is the U.S. government's official web portal to all federal, state and local government web resources and services.